Time,TemperatureF,DewpointF,PressureIn,WindDirection,WindDirectionDegrees,WindSpeedMPH,WindSpeedGustMPH,Humidity,HourlyPrecipIn,Conditions,Clouds,dailyrainin,SoftwareType,DateUTC
2013-01-24 00:02:00,53.6,46.3,29.85,WSW,248,0.4,2.7,76,0.00,,,0.00,WUHU216HW,2013-01-24 08:02:00,
2013-01-24 00:07:00,53.6,46.3,29.85,ENE,68,0.4,1.8,76,0.00,,,0.00,WUHU216HW,2013-01-24 08:07:00,
2013-01-24 00:12:00,53.6,45.9,29.85,NNW,338,0.9,0.9,75,0.00,,,0.00,WUHU216HW,2013-01-24 08:12:00,
2013-01-24 00:17:00,53.6,45.9,29.85,NNE,23,0.9,0.9,75,0.00,,,0.00,WUHU216HW,2013-01-24 08:17:00,
2013-01-24 00:22:00,53.6,45.9,29.84,NE,45,0.4,0.9,75,0.00,,,0.00,WUHU216HW,2013-01-24 08:22:00,
2013-01-24 00:27:00,53.6,45.9,29.84,SSW,203,0.4,1.1,75,0.00,,,0.00,WUHU216HW,2013-01-24 08:27:00,
2013-01-24 00:32:00,53.8,46.1,29.85,ESE,113,0.0,1.1,75,0.00,,,0.00,WUHU216HW,2013-01-24 08:32:00,
2013-01-24 00:37:00,53.8,46.1,29.85,SSE,158,0.7,1.1,75,0.00,,,0.00,WUHU216HW,2013-01-24 08:37:00,
2013-01-24 00:42:00,53.8,46.1,29.85,NE,45,0.2,0.7,75,0.00,,,0.00,WUHU216HW,2013-01-24 08:42:00,
2013-01-24 00:47:00,54.0,46.3,29.85,NNE,23,0.4,1.1,75,0.00,,,0.00,WUHU216HW,2013-01-24 08:47:00,
2013-01-24 00:52:00,54.2,46.5,29.86,NNE,23,0.4,1.8,75,0.00,,,0.00,WUHU216HW,2013-01-24 08:52:00,
2013-01-24 00:57:00,54.2,46.5,29.85,NNW,338,0.4,1.8,75,0.00,,,0.00,WUHU216HW,2013-01-24 08:57:00,
2013-01-24 01:02:00,54.4,46.6,29.86,NNE,23,0.9,3.6,75,0.00,,,0.00,WUHU216HW,2013-01-24 09:02:00,
2013-01-24 01:07:00,54.4,46.6,29.86,North,0,1.3,3.6,75,0.00,,,0.00,WUHU216HW,2013-01-24 09:07:00,
2013-01-24 01:12:00,54.4,46.6,29.86,NNW,338,1.3,1.6,75,0.00,,,0.00,WUHU216HW,2013-01-24 09:12:00,
2013-01-24 01:17:00,54.4,46.6,29.86,NNW,338,1.3,1.3,75,0.00,,,0.00,WUHU216HW,2013-01-24 09:17:00,
2013-01-24 01:38:00,54.4,47.0,29.87,ENE,68,0.4,0.4,76,0.00,,,0.00,WUHU216HW,2013-01-24 09:38:00,
2013-01-24 01:43:00,54.2,46.8,29.87,NNE,23,0.4,1.6,76,0.00,,,0.00,WUHU216HW,2013-01-24 09:43:00,
2013-01-24 01:48:00,54.2,46.8,29.87,NE,45,0.2,1.6,76,0.00,,,0.00,WUHU216HW,2013-01-24 09:48:00,
2013-01-24 01:53:00,54.0,46.6,29.87,SSW,203,0.4,1.3,76,0.00,,,0.00,WUHU216HW,2013-01-24 09:53:00,
2013-01-24 01:58:00,54.0,47.0,29.87,SSE,158,2.9,2.9,77,0.00,,,0.00,WUHU216HW,2013-01-24 09:58:00,
2013-01-24 02:03:00,54.0,46.6,29.88,WSW,248,3.4,3.4,76,0.00,,,0.00,WUHU216HW,2013-01-24 10:03:00,
2013-01-24 02:08:00,54.0,46.6,29.88,SW,225,1.1,3.4,76,0.00,,,0.00,WUHU216HW,2013-01-24 10:08:00,
2013-01-24 02:13:00,53.8,46.5,29.88,South,180,2.9,2.9,76,0.00,,,0.00,WUHU216HW,2013-01-24 10:13:00,
2013-01-24 02:18:00,53.6,46.6,29.88,SW,225,2.0,2.9,77,0.00,,,0.00,WUHU216HW,2013-01-24 10:18:00,
2013-01-24 02:23:00,53.5,46.4,29.88,WSW,248,1.1,2.2,77,0.00,,,0.00,WUHU216HW,2013-01-24 10:23:00,
2013-01-24 02:28:00,53.1,46.4,29.88,WSW,248,1.1,2.2,78,0.00,,,0.00,WUHU216HW,2013-01-24 10:28:00,
2013-01-24 02:33:00,52.9,46.3,29.88,NNW,338,0.4,2.2,78,0.00,,,0.00,WUHU216HW,2013-01-24 10:33:00,
2013-01-24 02:38:00,52.9,46.3,29.88,NNW,338,0.7,1.3,78,0.00,,,0.00,WUHU216HW,2013-01-24 10:38:00,
2013-01-24 02:43:00,52.9,46.3,29.88,NNW,338,0.7,0.7,78,0.00,,,0.00,WUHU216HW,2013-01-24 10:43:00,
2013-01-24 03:00:00,52.6,46.3,29.88,SSE,158,0.4,0.4,79,0.00,,,0.00,WUHU216HW,2013-01-24 11:00:00,
2013-01-24 03:05:00,52.6,46.3,29.88,South,180,0.4,0.7,79,0.00,,,0.00,WUHU216HW,2013-01-24 11:05:00,
2013-01-24 03:10:00,52.6,46.3,29.88,SSE,158,0.4,1.1,79,0.00,,,0.00,WUHU216HW,2013-01-24 11:10:00,
2013-01-24 03:15:00,52.4,46.1,29.89,SSE,158,0.0,1.1,79,0.00,,,0.00,WUHU216HW,2013-01-24 11:15:00,
2013-01-24 03:20:00,52.4,46.1,29.88,SSE,158,0.0,0.0,79,0.00,,,0.00,WUHU216HW,2013-01-24 11:20:00,
2013-01-24 03:25:00,52.4,46.1,29.89,SSE,158,0.0,0.0,79,0.00,,,0.00,WUHU216HW,2013-01-24 11:25:00,
2013-01-24 03:30:00,52.4,46.1,29.89,SSE,158,0.0,0.0,79,0.00,,,0.00,WUHU216HW,2013-01-24 11:30:00,
2013-01-24 03:35:00,52.2,46.3,29.89,NW,315,0.9,0.9,80,0.00,,,0.00,WUHU216HW,2013-01-24 11:35:00,
2013-01-24 03:40:00,52.2,46.3,29.89,NW,315,0.0,1.1,80,0.00,,,0.00,WUHU216HW,2013-01-24 11:40:00,
2013-01-24 03:45:00,52.0,46.7,29.88,NW,315,0.2,1.1,82,0.00,,,0.00,WUHU216HW,2013-01-24 11:45:00,
2013-01-24 03:50:00,52.0,46.7,29.88,ESE,113,1.1,1.1,82,0.00,,,0.00,WUHU216HW,2013-01-24 11:50:00,
2013-01-24 03:55:00,51.8,46.5,29.89,SE,135,1.1,1.8,82,0.00,,,0.00,WUHU216HW,2013-01-24 11:55:00,
2013-01-24 04:00:00,51.8,46.5,29.89,ESE,113,1.1,1.8,82,0.00,,,0.00,WUHU216HW,2013-01-24 12:00:00,
2013-01-24 04:05:00,51.7,46.4,29.89,East,90,1.1,1.1,82,0.00,,,0.00,WUHU216HW,2013-01-24 12:05:00,
2013-01-24 04:10:00,51.5,46.8,29.89,East,90,1.3,1.3,84,0.00,,,0.00,WUHU216HW,2013-01-24 12:10:00,
2013-01-24 04:15:00,51.3,46.3,29.89,ENE,68,0.0,1.3,83,0.00,,,0.00,WUHU216HW,2013-01-24 12:15:00,
2013-01-24 04:20:00,51.3,46.3,29.89,ENE,68,0.9,1.1,83,0.00,,,0.00,WUHU216HW,2013-01-24 12:20:00,
2013-01-24 04:25:00,51.1,46.7,29.89,ENE,68,1.6,1.6,85,0.00,,,0.00,WUHU216HW,2013-01-24 12:25:00,
2013-01-24 04:30:00,51.1,46.7,29.89,ESE,113,0.7,1.8,85,0.00,,,0.00,WUHU216HW,2013-01-24 12:30:00,
2013-01-24 04:35:00,51.1,46.5,29.89,East,90,0.7,1.8,84,0.00,,,0.00,WUHU216HW,2013-01-24 12:35:00,
2013-01-24 04:40:00,51.1,46.7,29.89,East,90,0.4,1.3,85,0.00,,,0.00,WUHU216HW,2013-01-24 12:40:00,
2013-01-24 04:45:00,51.1,46.5,29.89,ENE,68,0.4,1.1,84,0.00,,,0.00,WUHU216HW,2013-01-24 12:45:00,
2013-01-24 04:50:00,51.1,46.7,29.89,ENE,68,0.4,1.1,85,0.00,,,0.00,WUHU216HW,2013-01-24 12:50:00,
2013-01-24 04:55:00,51.1,46.5,29.89,ENE,68,0.4,1.1,84,0.00,,,0.00,WUHU216HW,2013-01-24 12:55:00,
2013-01-24 05:00:00,51.1,46.5,29.89,ENE,68,0.4,1.1,84,0.00,,,0.00,WUHU216HW,2013-01-24 13:00:00,
2013-01-24 05:05:00,51.1,46.5,29.89,ENE,68,0.7,0.7,84,0.00,,,0.00,WUHU216HW,2013-01-24 13:05:00,
2013-01-24 05:10:00,51.1,46.7,29.89,ENE,68,0.4,0.7,85,0.00,,,0.00,WUHU216HW,2013-01-24 13:10:00,
2013-01-24 05:15:00,51.1,46.5,29.89,ENE,68,0.7,0.7,84,0.01,,,0.01,WUHU216HW,2013-01-24 13:15:00,
2013-01-24 05:20:00,51.1,46.7,29.89,ENE,68,0.9,1.1,85,0.01,,,0.01,WUHU216HW,2013-01-24 13:20:00,
2013-01-24 05:25:00,50.9,46.8,29.89,East,90,1.3,1.6,86,0.01,,,0.01,WUHU216HW,2013-01-24 13:25:00,
2013-01-24 05:30:00,50.9,46.8,29.89,East,90,0.4,1.6,86,0.02,,,0.02,WUHU216HW,2013-01-24 13:30:00,
2013-01-24 05:35:00,51.1,46.7,29.89,East,90,0.9,1.3,85,0.02,,,0.02,WUHU216HW,2013-01-24 13:35:00,
2013-01-24 05:40:00,50.9,46.5,29.89,East,90,0.0,0.9,85,0.02,,,0.02,WUHU216HW,2013-01-24 13:40:00,
2013-01-24 05:45:00,51.1,46.7,29.89,ENE,68,0.9,0.9,85,0.03,,,0.03,WUHU216HW,2013-01-24 13:45:00,
2013-01-24 05:50:00,51.1,46.7,29.89,ENE,68,0.0,0.9,85,0.04,,,0.03,WUHU216HW,2013-01-24 13:50:00,
2013-01-24 05:55:00,51.1,46.7,29.89,ENE,68,0.0,0.4,85,0.04,,,0.04,WUHU216HW,2013-01-24 13:55:00,
2013-01-24 06:00:00,51.1,46.7,29.89,ENE,68,0.0,0.4,85,0.04,,,0.04,WUHU216HW,2013-01-24 14:00:00,
2013-01-24 06:05:00,51.3,46.9,29.89,ENE,68,0.0,0.2,85,0.05,,,0.05,WUHU216HW,2013-01-24 14:05:00,
2013-01-24 06:10:00,51.5,47.3,29.90,ENE,68,0.0,0.4,86,0.04,,,0.05,WUHU216HW,2013-01-24 14:10:00,
2013-01-24 06:15:00,51.5,47.3,29.90,ENE,68,0.0,0.4,86,0.05,,,0.06,WUHU216HW,2013-01-24 14:15:00,
2013-01-24 06:20:00,51.7,47.5,29.90,ENE,68,0.0,0.4,86,0.05,,,0.06,WUHU216HW,2013-01-24 14:20:00,
2013-01-24 06:25:00,51.8,47.7,29.89,ENE,68,0.0,0.4,86,0.05,,,0.06,WUHU216HW,2013-01-24 14:25:00,
2013-01-24 06:30:00,51.8,47.7,29.89,ENE,68,0.7,0.9,86,0.04,,,0.06,WUHU216HW,2013-01-24 14:30:00,
2013-01-24 06:35:00,52.0,47.6,29.89,East,90,0.0,1.1,85,0.04,,,0.06,WUHU216HW,2013-01-24 14:35:00,
2013-01-24 06:40:00,52.0,47.6,29.90,East,90,0.0,1.1,85,0.03,,,0.06,WUHU216HW,2013-01-24 14:40:00,
2013-01-24 06:45:00,52.2,47.8,29.89,East,90,0.0,0.4,85,0.03,,,0.06,WUHU216HW,2013-01-24 14:45:00,
2013-01-24 06:50:00,52.2,47.8,29.89,North,0,0.0,0.4,85,0.02,,,0.06,WUHU216HW,2013-01-24 14:50:00,
2013-01-24 06:55:00,52.2,47.8,29.89,North,0,0.0,0.4,85,0.02,,,0.06,WUHU216HW,2013-01-24 14:55:00,
2013-01-24 07:00:00,52.2,47.8,29.89,ENE,68,0.4,0.9,85,0.02,,,0.06,WUHU216HW,2013-01-24 15:00:00,
2013-01-24 07:05:00,52.2,47.5,29.89,ENE,68,0.0,0.9,84,0.01,,,0.06,WUHU216HW,2013-01-24 15:05:00,
2013-01-24 07:10:00,52.2,47.5,29.89,ENE,68,0.0,0.4,84,0.01,,,0.06,WUHU216HW,2013-01-24 15:10:00,
2013-01-24 07:15:00,52.2,47.5,29.89,ENE,68,0.0,0.2,84,0.00,,,0.06,WUHU216HW,2013-01-24 15:15:00,
2013-01-24 07:20:00,52.2,47.5,29.90,ENE,68,0.9,0.9,84,0.00,,,0.06,WUHU216HW,2013-01-24 15:20:00,
2013-01-24 07:25:00,52.2,47.5,29.89,ENE,68,0.4,0.9,84,0.00,,,0.06,WUHU216HW,2013-01-24 15:25:00,
2013-01-24 07:30:00,52.2,47.5,29.89,ENE,68,0.9,0.9,84,0.00,,,0.06,WUHU216HW,2013-01-24 15:30:00,
2013-01-24 07:35:00,51.8,47.4,29.90,East,90,0.4,1.1,85,0.00,,,0.06,WUHU216HW,2013-01-24 15:35:00,
2013-01-24 07:40:00,51.8,47.4,29.90,East,90,0.0,1.1,85,0.00,,,0.06,WUHU216HW,2013-01-24 15:40:00,
2013-01-24 07:45:00,51.8,47.4,29.90,East,90,0.7,0.7,85,0.01,,,0.07,WUHU216HW,2013-01-24 15:45:00,
2013-01-24 07:50:00,51.7,47.5,29.90,East,90,0.7,1.8,86,0.01,,,0.07,WUHU216HW,2013-01-24 15:50:00,
2013-01-24 07:55:00,51.7,47.3,29.91,East,90,0.7,1.8,85,0.01,,,0.07,WUHU216HW,2013-01-24 15:55:00,
2013-01-24 08:00:00,51.7,47.3,29.91,East,90,0.0,1.6,85,0.01,,,0.07,WUHU216HW,2013-01-24 16:00:00,
2013-01-24 08:05:00,51.8,47.4,29.91,East,90,0.0,0.4,85,0.01,,,0.07,WUHU216HW,2013-01-24 16:05:00,
2013-01-24 08:10:00,52.0,47.6,29.92,East,90,0.0,0.2,85,0.01,,,0.07,WUHU216HW,2013-01-24 16:10:00,
2013-01-24 08:15:00,52.2,47.8,29.92,East,90,0.0,0.0,85,0.01,,,0.07,WUHU216HW,2013-01-24 16:15:00,
2013-01-24 08:20:00,52.2,47.8,29.92,East,90,0.0,0.0,85,0.01,,,0.07,WUHU216HW,2013-01-24 16:20:00,
2013-01-24 08:25:00,52.2,47.8,29.92,East,90,0.0,0.4,85,0.01,,,0.07,WUHU216HW,2013-01-24 16:25:00,
2013-01-24 08:30:00,52.4,48.0,29.92,East,90,0.0,0.4,85,0.01,,,0.07,WUHU216HW,2013-01-24 16:30:00,
2013-01-24 08:35:00,52.6,48.2,29.93,East,90,0.0,0.0,85,0.01,,,0.07,WUHU216HW,2013-01-24 16:35:00,
2013-01-24 08:40:00,52.7,48.3,29.93,ENE,68,0.0,0.4,85,0.00,,,0.07,WUHU216HW,2013-01-24 16:40:00,
2013-01-24 08:45:00,52.9,48.5,29.93,NE,45,0.4,0.4,85,0.00,,,0.07,WUHU216HW,2013-01-24 16:45:00,
2013-01-24 08:50:00,52.9,48.5,29.93,NNE,23,0.0,0.4,85,0.00,,,0.07,WUHU216HW,2013-01-24 16:50:00,
2013-01-24 08:55:00,53.1,48.7,29.94,NE,45,0.0,0.2,85,0.00,,,0.07,WUHU216HW,2013-01-24 16:55:00,
2013-01-24 09:00:00,53.3,48.9,29.94,NE,45,0.0,0.2,85,0.00,,,0.07,WUHU216HW,2013-01-24 17:00:00,
2013-01-24 09:05:00,53.5,49.1,29.94,NE,45,0.0,0.2,85,0.00,,,0.07,WUHU216HW,2013-01-24 17:05:00,
2013-01-24 09:10:00,53.6,49.2,29.94,NNE,23,0.0,0.2,85,0.00,,,0.07,WUHU216HW,2013-01-24 17:10:00,
2013-01-24 09:15:00,53.8,49.1,29.94,NNE,23,0.0,0.0,84,0.00,,,0.07,WUHU216HW,2013-01-24 17:15:00,
2013-01-24 09:20:00,53.8,49.1,29.95,NNE,23,0.0,0.0,84,0.00,,,0.07,WUHU216HW,2013-01-24 17:20:00,
2013-01-24 09:25:00,54.0,49.2,29.94,NE,45,0.0,0.4,84,0.00,,,0.07,WUHU216HW,2013-01-24 17:25:00,
2013-01-24 09:30:00,54.0,49.2,29.94,ENE,68,0.9,1.3,84,0.00,,,0.07,WUHU216HW,2013-01-24 17:30:00,
2013-01-24 09:35:00,54.0,49.6,29.94,ESE,113,3.6,3.6,85,0.00,,,0.07,WUHU216HW,2013-01-24 17:35:00,
2013-01-24 09:40:00,54.0,49.9,29.95,East,90,1.6,3.6,86,0.00,,,0.07,WUHU216HW,2013-01-24 17:40:00,
2013-01-24 09:45:00,54.0,49.9,29.95,East,90,2.2,3.1,86,0.00,,,0.07,WUHU216HW,2013-01-24 17:45:00,
2013-01-24 09:50:00,54.0,50.2,29.95,East,90,2.5,3.6,87,0.00,,,0.07,WUHU216HW,2013-01-24 17:50:00,
2013-01-24 09:55:00,54.2,50.4,29.95,East,90,3.4,3.6,87,0.00,,,0.07,WUHU216HW,2013-01-24 17:55:00,
2013-01-24 10:00:00,54.4,50.6,29.95,East,90,2.7,3.8,87,0.00,,,0.07,WUHU216HW,2013-01-24 18:00:00,
2013-01-24 10:05:00,54.5,50.8,29.95,East,90,2.5,3.8,87,0.00,,,0.07,WUHU216HW,2013-01-24 18:05:00,
2013-01-24 10:10:00,54.7,50.6,29.95,ESE,113,4.0,4.0,86,0.00,,,0.07,WUHU216HW,2013-01-24 18:10:00,
2013-01-24 10:15:00,55.1,51.0,29.95,East,90,2.7,4.0,86,0.00,,,0.07,WUHU216HW,2013-01-24 18:15:00,
2013-01-24 10:20:00,55.1,51.0,29.95,ESE,113,0.7,3.4,86,0.00,,,0.07,WUHU216HW,2013-01-24 18:20:00,
2013-01-24 10:25:00,55.4,50.9,29.95,East,90,1.1,2.5,85,0.00,,,0.07,WUHU216HW,2013-01-24 18:25:00,
2013-01-24 10:30:00,55.8,51.3,29.95,NNE,23,0.0,1.6,85,0.00,,,0.07,WUHU216HW,2013-01-24 18:30:00,
2013-01-24 10:35:00,56.2,51.7,29.95,NW,315,1.1,1.1,85,0.00,,,0.07,WUHU216HW,2013-01-24 18:35:00,
2013-01-24 10:40:00,56.5,52.0,29.95,WSW,248,0.4,1.6,85,0.00,,,0.07,WUHU216HW,2013-01-24 18:40:00,
2013-01-24 10:45:00,56.9,52.0,29.95,WSW,248,0.7,1.6,84,0.00,,,0.07,WUHU216HW,2013-01-24 18:45:00,
2013-01-24 10:50:00,57.2,52.4,29.96,WSW,248,0.0,0.9,84,0.00,,,0.07,WUHU216HW,2013-01-24 18:50:00,
2013-01-24 10:55:00,57.8,52.9,29.96,West,270,1.3,1.3,84,0.00,,,0.07,WUHU216HW,2013-01-24 18:55:00,
2013-01-24 11:00:00,58.1,53.3,29.96,WSW,248,1.6,1.8,84,0.00,,,0.07,WUHU216HW,2013-01-24 19:00:00,
2013-01-24 11:05:00,58.5,53.4,29.96,WNW,293,2.5,2.7,83,0.00,,,0.07,WUHU216HW,2013-01-24 19:05:00,
2013-01-24 11:10:00,58.5,53.4,29.96,West,270,1.3,2.9,83,0.00,,,0.07,WUHU216HW,2013-01-24 19:10:00,
2013-01-24 11:15:00,58.5,53.4,29.96,West,270,0.0,2.9,83,0.00,,,0.07,WUHU216HW,2013-01-24 19:15:00,
2013-01-24 11:20:00,58.7,53.2,29.95,SSW,203,1.3,2.2,82,0.00,,,0.07,WUHU216HW,2013-01-24 19:20:00,
2013-01-24 11:25:00,58.7,53.2,29.95,SSE,158,1.1,2.2,82,0.00,,,0.07,WUHU216HW,2013-01-24 19:25:00,
2013-01-24 11:30:00,58.7,53.2,29.95,SSE,158,0.0,2.2,82,0.00,,,0.07,WUHU216HW,2013-01-24 19:30:00,
2013-01-24 11:35:00,58.9,53.4,29.95,SSE,158,1.1,1.1,82,0.00,,,0.07,WUHU216HW,2013-01-24 19:35:00,
2013-01-24 11:40:00,58.9,53.1,29.95,SSE,158,1.3,2.5,81,0.00,,,0.07,WUHU216HW,2013-01-24 19:40:00,
2013-01-24 11:45:00,58.7,52.9,29.94,ESE,113,1.8,2.5,81,0.00,,,0.07,WUHU216HW,2013-01-24 19:45:00,
2013-01-24 11:50:00,58.3,51.8,29.94,East,90,4.9,5.4,79,0.00,,,0.07,WUHU216HW,2013-01-24 19:50:00,
2013-01-24 11:55:00,57.8,51.7,29.94,ESE,113,3.8,7.4,80,0.00,,,0.07,WUHU216HW,2013-01-24 19:55:00,
2013-01-24 12:00:00,57.6,51.9,29.94,ENE,68,3.1,7.4,81,0.00,,,0.07,WUHU216HW,2013-01-24 20:00:00,
2013-01-24 12:05:00,57.2,51.5,29.93,East,90,3.1,5.8,81,0.00,,,0.07,WUHU216HW,2013-01-24 20:05:00,
2013-01-24 12:10:00,57.4,51.7,29.93,East,90,4.7,5.4,81,0.00,,,0.07,WUHU216HW,2013-01-24 20:10:00,
2013-01-24 12:15:00,57.2,51.5,29.93,SE,135,4.5,4.7,81,0.00,,,0.07,WUHU216HW,2013-01-24 20:15:00,
2013-01-24 12:20:00,57.2,51.5,29.93,ESE,113,3.6,6.0,81,0.00,,,0.07,WUHU216HW,2013-01-24 20:20:00,
2013-01-24 12:25:00,57.2,51.8,29.92,ESE,113,3.1,6.0,82,0.00,,,0.07,WUHU216HW,2013-01-24 20:25:00,
2013-01-24 12:30:00,57.2,51.5,29.93,SE,135,3.4,4.0,81,0.00,,,0.07,WUHU216HW,2013-01-24 20:30:00,
2013-01-24 12:35:00,57.6,51.9,29.92,ESE,113,4.7,4.7,81,0.00,,,0.07,WUHU216HW,2013-01-24 20:35:00,
2013-01-24 12:40:00,57.6,51.9,29.92,ENE,68,3.4,4.7,81,0.00,,,0.07,WUHU216HW,2013-01-24 20:40:00,
2013-01-24 12:45:00,57.6,51.9,29.92,ESE,113,3.1,5.1,81,0.00,,,0.07,WUHU216HW,2013-01-24 20:45:00,
2013-01-24 12:50:00,57.8,52.0,29.92,East,90,2.0,5.1,81,0.00,,,0.07,WUHU216HW,2013-01-24 20:50:00,
2013-01-24 12:55:00,58.0,51.8,29.92,ESE,113,1.8,2.5,80,0.00,,,0.07,WUHU216HW,2013-01-24 20:55:00,
2013-01-24 13:00:00,58.0,51.8,29.92,East,90,2.5,3.8,80,0.00,,,0.07,WUHU216HW,2013-01-24 21:00:00,
2013-01-24 13:05:00,58.1,52.0,29.92,ESE,113,2.5,4.0,80,0.00,,,0.07,WUHU216HW,2013-01-24 21:05:00,
2013-01-24 13:10:00,58.1,51.7,29.92,ESE,113,0.0,4.0,79,0.00,,,0.07,WUHU216HW,2013-01-24 21:10:00,
2013-01-24 13:15:00,58.1,51.7,29.92,East,90,1.6,4.0,79,0.00,,,0.07,WUHU216HW,2013-01-24 21:15:00,
2013-01-24 13:20:00,58.1,51.7,29.92,East,90,1.1,4.0,79,0.00,,,0.07,WUHU216HW,2013-01-24 21:20:00,
2013-01-24 13:25:00,58.1,52.0,29.93,East,90,1.8,2.2,80,0.00,,,0.07,WUHU216HW,2013-01-24 21:25:00,
2013-01-24 13:30:00,58.0,52.2,29.92,East,90,2.0,4.7,81,0.00,,,0.07,WUHU216HW,2013-01-24 21:30:00,
2013-01-24 13:35:00,57.8,52.3,29.92,East,90,3.6,5.1,82,0.00,,,0.07,WUHU216HW,2013-01-24 21:35:00,
2013-01-24 13:40:00,57.4,52.3,29.92,East,90,2.5,5.1,83,0.00,,,0.07,WUHU216HW,2013-01-24 21:40:00,
2013-01-24 13:45:00,57.4,52.6,29.92,ESE,113,2.2,4.7,84,0.00,,,0.07,WUHU216HW,2013-01-24 21:45:00,
2013-01-24 13:50:00,57.4,52.6,29.92,ESE,113,2.5,4.0,84,0.00,,,0.07,WUHU216HW,2013-01-24 21:50:00,
2013-01-24 13:55:00,57.4,52.6,29.92,East,90,1.3,4.0,84,0.00,,,0.07,WUHU216HW,2013-01-24 21:55:00,
2013-01-24 14:00:00,57.4,52.6,29.92,SE,135,2.0,2.5,84,0.00,,,0.07,WUHU216HW,2013-01-24 22:00:00,
2013-01-24 14:05:00,57.8,52.7,29.92,ESE,113,1.3,2.5,83,0.00,,,0.07,WUHU216HW,2013-01-24 22:05:00,
2013-01-24 14:10:00,58.0,53.1,29.92,East,90,1.8,1.8,84,0.00,,,0.07,WUHU216HW,2013-01-24 22:10:00,
2013-01-24 14:15:00,58.0,53.1,29.92,East,90,2.2,2.2,84,0.00,,,0.07,WUHU216HW,2013-01-24 22:15:00,
2013-01-24 14:20:00,58.0,52.8,29.92,ESE,113,1.6,2.2,83,0.00,,,0.07,WUHU216HW,2013-01-24 22:20:00,
2013-01-24 14:25:00,58.1,53.0,29.92,East,90,1.3,1.8,83,0.00,,,0.07,WUHU216HW,2013-01-24 22:25:00,
2013-01-24 14:30:00,58.3,53.2,29.92,NNE,23,0.4,1.3,83,0.00,,,0.07,WUHU216HW,2013-01-24 22:30:00,
2013-01-24 14:35:00,58.3,53.2,29.92,NNE,23,0.0,0.4,83,0.00,,,0.07,WUHU216HW,2013-01-24 22:35:00,
2013-01-24 14:40:00,58.7,53.2,29.92,NNE,23,0.4,0.7,82,0.00,,,0.07,WUHU216HW,2013-01-24 22:40:00,
2013-01-24 14:45:00,58.7,53.2,29.92,NNE,23,0.7,0.7,82,0.00,,,0.07,WUHU216HW,2013-01-24 22:45:00,
2013-01-24 14:50:00,58.9,53.4,29.92,NW,315,0.4,0.7,82,0.00,,,0.07,WUHU216HW,2013-01-24 22:50:00,
2013-01-24 14:55:00,58.9,53.1,29.92,East,90,0.0,1.1,81,0.00,,,0.07,WUHU216HW,2013-01-24 22:55:00,
2013-01-24 15:00:00,58.9,53.1,29.92,South,180,0.4,1.1,81,0.00,,,0.07,WUHU216HW,2013-01-24 23:00:00,
2013-01-24 15:05:00,59.0,53.3,29.92,East,90,2.0,2.0,81,0.00,,,0.07,WUHU216HW,2013-01-24 23:05:00,
2013-01-24 15:10:00,58.9,53.1,29.92,East,90,2.5,2.5,81,0.00,,,0.07,WUHU216HW,2013-01-24 23:10:00,
2013-01-24 15:15:00,58.7,52.9,29.92,ENE,68,0.0,3.4,81,0.00,,,0.07,WUHU216HW,2013-01-24 23:15:00,
2013-01-24 15:20:00,58.9,53.1,29.92,East,90,0.4,3.4,81,0.00,,,0.07,WUHU216HW,2013-01-24 23:20:00,
2013-01-24 15:25:00,58.9,53.1,29.92,East,90,0.7,0.9,81,0.00,,,0.07,WUHU216HW,2013-01-24 23:25:00,
2013-01-24 15:30:00,59.0,52.9,29.92,East,90,0.0,0.9,80,0.00,,,0.07,WUHU216HW,2013-01-24 23:30:00,
2013-01-24 15:35:00,59.0,53.3,29.92,East,90,0.0,0.9,81,0.00,,,0.07,WUHU216HW,2013-01-24 23:35:00,
2013-01-24 15:40:00,59.2,53.5,29.92,East,90,0.0,0.2,81,0.00,,,0.07,WUHU216HW,2013-01-24 23:40:00,
2013-01-24 15:45:00,59.4,53.3,29.92,East,90,0.4,0.4,80,0.00,,,0.07,WUHU216HW,2013-01-24 23:45:00,
2013-01-24 15:50:00,59.4,53.3,29.92,NNE,23,0.7,0.7,80,0.00,,,0.07,WUHU216HW,2013-01-24 23:50:00,
2013-01-24 15:55:00,59.6,53.5,29.93,East,90,0.0,0.7,80,0.00,,,0.07,WUHU216HW,2013-01-24 23:55:00,
2013-01-24 16:00:00,59.6,53.1,29.93,East,90,0.0,0.4,79,0.00,,,0.07,WUHU216HW,2013-01-25 00:00:00,
2013-01-24 16:05:00,59.6,53.1,29.93,East,90,0.0,0.7,79,0.00,,,0.07,WUHU216HW,2013-01-25 00:05:00,
2013-01-24 16:10:00,59.6,53.1,29.93,East,90,0.0,0.7,79,0.00,,,0.07,WUHU216HW,2013-01-25 00:10:00,
2013-01-24 16:15:00,59.6,53.1,29.93,East,90,0.9,1.1,79,0.00,,,0.07,WUHU216HW,2013-01-25 00:15:00,
2013-01-24 16:20:00,59.6,53.1,29.93,East,90,0.4,1.1,79,0.00,,,0.07,WUHU216HW,2013-01-25 00:20:00,
2013-01-24 16:25:00,59.4,52.9,29.93,East,90,0.7,1.6,79,0.00,,,0.07,WUHU216HW,2013-01-25 00:25:00,
2013-01-24 16:30:00,59.4,52.9,29.93,ENE,68,0.7,1.6,79,0.00,,,0.07,WUHU216HW,2013-01-25 00:30:00,
2013-01-24 16:35:00,59.4,52.9,29.93,ENE,68,0.0,1.1,79,0.00,,,0.07,WUHU216HW,2013-01-25 00:35:00,
2013-01-24 16:40:00,59.4,52.9,29.93,East,90,0.0,1.8,79,0.00,,,0.07,WUHU216HW,2013-01-25 00:40:00,
2013-01-24 16:45:00,59.4,52.9,29.93,East,90,0.0,1.8,79,0.00,,,0.07,WUHU216HW,2013-01-25 00:45:00,
2013-01-24 16:50:00,59.4,52.9,29.93,East,90,1.6,1.6,79,0.00,,,0.07,WUHU216HW,2013-01-25 00:50:00,
2013-01-24 16:55:00,59.2,52.7,29.93,NNW,338,0.2,1.6,79,0.00,,,0.07,WUHU216HW,2013-01-25 00:55:00,
2013-01-24 17:00:00,59.2,52.7,29.93,East,90,0.9,0.9,79,0.00,,,0.07,WUHU216HW,2013-01-25 01:00:00,
2013-01-24 17:05:00,59.0,52.6,29.94,East,90,2.0,2.7,79,0.00,,,0.07,WUHU216HW,2013-01-25 01:05:00,
2013-01-24 17:10:00,58.9,52.4,29.93,East,90,1.8,2.7,79,0.00,,,0.07,WUHU216HW,2013-01-25 01:10:00,
2013-01-24 17:15:00,58.7,52.2,29.94,ESE,113,0.7,2.7,79,0.00,,,0.07,WUHU216HW,2013-01-25 01:15:00,
2013-01-24 17:20:00,58.3,51.8,29.94,East,90,1.8,2.5,79,0.00,,,0.07,WUHU216HW,2013-01-25 01:20:00,
2013-01-24 17:25:00,58.1,51.7,29.94,East,90,0.9,2.5,79,0.00,,,0.07,WUHU216HW,2013-01-25 01:25:00,
2013-01-24 17:30:00,58.0,51.5,29.94,East,90,0.7,1.8,79,0.00,,,0.07,WUHU216HW,2013-01-25 01:30:00,
2013-01-24 17:35:00,58.0,51.5,29.94,East,90,0.4,1.6,79,0.00,,,0.07,WUHU216HW,2013-01-25 01:35:00,
2013-01-24 17:40:00,58.0,51.5,29.94,East,90,0.0,0.7,79,0.00,,,0.07,WUHU216HW,2013-01-25 01:40:00,
2013-01-24 17:45:00,57.8,51.3,29.94,East,90,0.0,0.0,79,0.00,,,0.07,WUHU216HW,2013-01-25 01:45:00,
2013-01-24 17:50:00,57.6,51.5,29.95,East,90,0.0,0.2,80,0.00,,,0.07,WUHU216HW,2013-01-25 01:50:00,
2013-01-24 17:55:00,57.4,51.3,29.95,East,90,0.0,0.2,80,0.00,,,0.07,WUHU216HW,2013-01-25 01:55:00,
2013-01-24 18:00:00,57.4,51.3,29.95,East,90,0.0,0.2,80,0.00,,,0.07,WUHU216HW,2013-01-25 02:00:00,
2013-01-24 18:05:00,57.2,51.1,29.95,East,90,0.0,0.2,80,0.00,,,0.07,WUHU216HW,2013-01-25 02:05:00,
2013-01-24 18:10:00,57.2,51.1,29.95,East,90,0.4,0.4,80,0.00,,,0.07,WUHU216HW,2013-01-25 02:10:00,
2013-01-24 18:15:00,57.2,51.1,29.95,ENE,68,0.2,0.4,80,0.00,,,0.07,WUHU216HW,2013-01-25 02:15:00,
2013-01-24 18:20:00,57.1,51.3,29.95,North,0,0.0,0.2,81,0.00,,,0.07,WUHU216HW,2013-01-25 02:20:00,
2013-01-24 18:25:00,57.1,51.3,29.95,NNE,23,0.4,0.4,81,0.00,,,0.07,WUHU216HW,2013-01-25 02:25:00,
2013-01-24 18:30:00,56.9,51.1,29.95,NNE,23,0.0,0.4,81,0.00,,,0.07,WUHU216HW,2013-01-25 02:30:00,
2013-01-24 18:35:00,56.9,51.1,29.95,NNW,338,0.2,0.4,81,0.00,,,0.07,WUHU216HW,2013-01-25 02:35:00,
2013-01-24 18:40:00,56.7,51.0,29.95,North,0,0.7,0.7,81,0.00,,,0.07,WUHU216HW,2013-01-25 02:40:00,
2013-01-24 18:45:00,56.7,51.0,29.96,North,0,0.2,0.7,81,0.00,,,0.07,WUHU216HW,2013-01-25 02:45:00,
2013-01-24 18:51:00,56.5,51.0,29.96,NNE,23,0.4,0.9,82,0.00,,,0.07,WUHU216HW,2013-01-25 02:51:00,
2013-01-24 18:55:00,56.5,51.0,29.96,NNW,338,0.4,0.9,82,0.00,,,0.07,WUHU216HW,2013-01-25 02:55:00,
2013-01-24 19:01:00,56.5,50.8,29.96,East,90,0.4,0.9,81,0.00,,,0.07,WUHU216HW,2013-01-25 03:01:00,
2013-01-24 19:05:00,56.5,50.8,29.96,East,90,0.0,0.7,81,0.00,,,0.07,WUHU216HW,2013-01-25 03:05:00,
2013-01-24 19:10:00,56.5,51.0,29.96,ENE,68,0.9,1.8,82,0.00,,,0.07,WUHU216HW,2013-01-25 03:10:00,
2013-01-24 19:15:00,56.5,51.0,29.97,East,90,1.8,1.8,82,0.00,,,0.07,WUHU216HW,2013-01-25 03:15:00,
2013-01-24 19:20:00,56.5,51.0,29.96,East,90,0.4,1.8,82,0.00,,,0.07,WUHU216HW,2013-01-25 03:20:00,
2013-01-24 19:25:00,56.5,51.0,29.96,East,90,0.0,1.3,82,0.00,,,0.07,WUHU216HW,2013-01-25 03:25:00,
2013-01-24 19:30:00,56.5,51.0,29.96,East,90,0.0,0.4,82,0.00,,,0.07,WUHU216HW,2013-01-25 03:30:00,
2013-01-24 19:36:00,56.5,51.0,29.96,East,90,0.2,0.4,82,0.00,,,0.07,WUHU216HW,2013-01-25 03:36:00,
2013-01-24 19:41:00,56.5,51.0,29.96,East,90,0.2,1.1,82,0.00,,,0.07,WUHU216HW,2013-01-25 03:41:00,
2013-01-24 19:46:00,56.3,50.9,29.97,North,0,0.7,1.1,82,0.00,,,0.07,WUHU216HW,2013-01-25 03:46:00,
2013-01-24 19:51:00,56.3,50.9,29.96,NNE,23,0.4,0.7,82,0.00,,,0.07,WUHU216HW,2013-01-25 03:51:00,
2013-01-24 19:55:00,56.3,50.9,29.97,ESE,113,0.9,1.6,82,0.00,,,0.07,WUHU216HW,2013-01-25 03:55:00,
2013-01-24 20:00:00,56.3,50.9,29.97,East,90,0.2,1.6,82,0.00,,,0.07,WUHU216HW,2013-01-25 04:00:00,
2013-01-24 20:06:00,56.2,50.7,29.97,NNE,23,0.4,0.9,82,0.00,,,0.07,WUHU216HW,2013-01-25 04:06:00,
2013-01-24 20:11:00,56.2,50.7,29.97,NNE,23,1.8,1.8,82,0.00,,,0.07,WUHU216HW,2013-01-25 04:11:00,
2013-01-24 20:16:00,56.2,50.7,29.97,NE,45,0.4,1.8,82,0.00,,,0.07,WUHU216HW,2013-01-25 04:16:00,
2013-01-24 20:21:00,56.2,50.7,29.96,NNE,23,0.2,0.9,82,0.00,,,0.07,WUHU216HW,2013-01-25 04:21:00,
2013-01-24 20:26:00,56.2,51.0,29.96,North,0,0.7,1.6,83,0.00,,,0.07,WUHU216HW,2013-01-25 04:26:00,
2013-01-24 20:31:00,56.0,50.9,29.97,NNE,23,0.4,2.2,83,0.00,,,0.07,WUHU216HW,2013-01-25 04:31:00,
2013-01-24 20:36:00,56.0,50.9,29.97,NNE,23,0.4,2.2,83,0.00,,,0.07,WUHU216HW,2013-01-25 04:36:00,
2013-01-24 20:41:00,56.0,50.9,29.97,North,0,0.4,1.1,83,0.00,,,0.07,WUHU216HW,2013-01-25 04:41:00,
2013-01-24 20:46:00,56.0,50.9,29.97,NNE,23,0.7,1.1,83,0.00,,,0.07,WUHU216HW,2013-01-25 04:46:00,
2013-01-24 20:51:00,56.0,50.9,29.97,ENE,68,0.4,1.1,83,0.00,,,0.07,WUHU216HW,2013-01-25 04:51:00,
2013-01-24 20:56:00,56.0,50.9,29.97,NE,45,0.7,1.1,83,0.00,,,0.07,WUHU216HW,2013-01-25 04:56:00,
2013-01-24 21:01:00,56.0,50.9,29.97,WNW,293,0.2,1.1,83,0.00,,,0.07,WUHU216HW,2013-01-25 05:01:00,
2013-01-24 21:03:00,56.0,50.9,29.97,SW,225,0.0,0.7,83,0.00,,,0.07,WUHU216HW,2013-01-25 05:03:00,
2013-01-24 21:08:00,56.0,50.9,29.97,NNE,23,0.2,1.8,83,0.00,,,0.07,WUHU216HW,2013-01-25 05:08:00,
2013-01-24 21:13:00,56.0,50.9,29.97,NE,45,0.4,1.8,83,0.00,,,0.07,WUHU216HW,2013-01-25 05:13:00,
2013-01-24 21:18:00,56.0,50.9,29.97,WNW,293,0.2,1.3,83,0.00,,,0.07,WUHU216HW,2013-01-25 05:18:00,
2013-01-24 21:23:00,56.0,50.9,29.97,NE,45,0.4,1.3,83,0.00,,,0.07,WUHU216HW,2013-01-25 05:23:00,
2013-01-24 21:28:00,56.0,50.9,29.97,NNE,23,0.4,1.6,83,0.00,,,0.07,WUHU216HW,2013-01-25 05:28:00,
2013-01-24 21:33:00,56.0,50.9,29.97,North,0,0.9,1.8,83,0.00,,,0.07,WUHU216HW,2013-01-25 05:33:00,
2013-01-24 21:38:00,56.0,50.9,29.97,NE,45,0.7,1.8,83,0.00,,,0.07,WUHU216HW,2013-01-25 05:38:00,
2013-01-24 21:43:00,56.0,51.1,29.98,North,0,0.4,1.1,84,0.00,,,0.07,WUHU216HW,2013-01-25 05:43:00,
2013-01-24 21:48:00,56.0,51.1,29.98,NNE,23,0.4,1.6,84,0.00,,,0.07,WUHU216HW,2013-01-25 05:48:00,
2013-01-24 21:53:00,56.0,51.1,29.98,East,90,1.8,1.8,84,0.00,,,0.07,WUHU216HW,2013-01-25 05:53:00,
2013-01-24 21:58:00,56.0,51.5,29.98,East,90,1.8,2.0,85,0.00,,,0.07,WUHU216HW,2013-01-25 05:58:00,
2013-01-24 22:03:00,56.2,51.3,29.99,East,90,0.0,2.9,84,0.00,,,0.07,WUHU216HW,2013-01-25 06:03:00,
2013-01-24 22:08:00,56.2,51.3,29.99,East,90,0.9,2.9,84,0.00,,,0.07,WUHU216HW,2013-01-25 06:08:00,
2013-01-24 22:13:00,56.2,51.3,29.98,East,90,0.4,1.1,84,0.00,,,0.07,WUHU216HW,2013-01-25 06:13:00,
2013-01-24 22:18:00,56.2,51.3,29.98,North,0,0.2,1.1,84,0.00,,,0.07,WUHU216HW,2013-01-25 06:18:00,
2013-01-24 22:23:00,56.2,51.3,29.98,North,0,0.4,0.9,84,0.00,,,0.07,WUHU216HW,2013-01-25 06:23:00,
2013-01-24 22:28:00,56.2,51.3,29.98,East,90,1.6,1.6,84,0.00,,,0.07,WUHU216HW,2013-01-25 06:28:00,
2013-01-24 22:33:00,56.2,51.3,29.98,ESE,113,1.3,1.8,84,0.00,,,0.07,WUHU216HW,2013-01-25 06:33:00,
2013-01-24 22:38:00,56.2,51.3,29.98,ESE,113,0.2,1.8,84,0.00,,,0.07,WUHU216HW,2013-01-25 06:38:00,
2013-01-24 22:43:00,56.2,51.3,29.98,ENE,68,0.2,2.0,84,0.00,,,0.07,WUHU216HW,2013-01-25 06:43:00,
2013-01-24 22:48:00,56.2,51.3,29.98,ENE,68,0.0,2.0,84,0.00,,,0.07,WUHU216HW,2013-01-25 06:48:00,
2013-01-24 22:53:00,56.2,51.3,29.98,ENE,68,0.4,1.1,84,0.00,,,0.07,WUHU216HW,2013-01-25 06:53:00,
2013-01-24 22:58:00,56.2,51.3,29.98,ENE,68,0.0,1.1,84,0.00,,,0.07,WUHU216HW,2013-01-25 06:58:00,
2013-01-24 23:03:00,56.2,51.3,29.99,ENE,68,0.0,0.4,84,0.00,,,0.07,WUHU216HW,2013-01-25 07:03:00,
2013-01-24 23:08:00,56.2,51.3,29.98,SW,225,0.7,1.1,84,0.00,,,0.07,WUHU216HW,2013-01-25 07:08:00,
2013-01-24 23:13:00,56.3,51.5,29.99,SSW,203,1.1,1.1,84,0.00,,,0.07,WUHU216HW,2013-01-25 07:13:00,
2013-01-24 23:18:00,56.2,51.3,29.99,West,270,1.6,1.6,84,0.00,,,0.07,WUHU216HW,2013-01-25 07:18:00,
2013-01-24 23:23:00,56.0,51.1,29.99,WNW,293,2.0,2.0,84,0.00,,,0.07,WUHU216HW,2013-01-25 07:23:00,
2013-01-24 23:28:00,56.0,51.1,29.99,West,270,1.6,2.0,84,0.00,,,0.07,WUHU216HW,2013-01-25 07:28:00,
2013-01-24 23:33:00,55.8,51.3,29.99,WNW,293,1.3,2.0,85,0.00,,,0.07,WUHU216HW,2013-01-25 07:33:00,
2013-01-24 23:38:00,55.8,51.3,29.99,WNW,293,0.7,1.8,85,0.00,,,0.07,WUHU216HW,2013-01-25 07:38:00,
2013-01-24 23:43:00,55.6,51.1,29.99,WNW,293,0.9,1.1,85,0.00,,,0.07,WUHU216HW,2013-01-25 07:43:00,
2013-01-24 23:48:00,55.6,51.1,29.99,WNW,293,0.7,1.1,85,0.00,,,0.07,WUHU216HW,2013-01-25 07:48:00,
2013-01-24 23:53:00,55.6,51.1,30.00,WNW,293,0.2,0.9,85,0.00,,,0.07,WUHU216HW,2013-01-25 07:53:00,
2013-01-24 23:58:00,55.8,51.3,30.00,SSE,158,0.0,1.6,85,0.00,,,0.07,WUHU216HW,2013-01-25 07:58:00,